This is the latest recevied weather packets stored in our database for station/object KC5DAQ-22. If no packets are shown the sender has not sent any weather packets the latest 1 day(s).
| Time | Temp. | Humidity | Pressure | Rain* | Wind** | Luminosity | Snow |
|---|---|---|---|---|---|---|---|
| 1777976400 | 22.78° C | 90% | 1006.7 hPa | 0 mm | 2.68 m/s, 48° | 0 W/m² | - |
| 1777976338 | 22.78° C | 90% | 1006.7 hPa | 0 mm | 2.24 m/s, 45° | 0 W/m² | - |
| 1777976279 | 22.78° C | 90% | 1006.6 hPa | 0 mm | 1.79 m/s, 44° | 0 W/m² | - |
| 1777976219 | 22.78° C | 90% | 1006.6 hPa | 0 mm | 1.34 m/s, 27° | 0 W/m² | - |
| 1777976158 | 22.78° C | 90% | 1006.7 hPa | 0 mm | 1.34 m/s, 31° | 0 W/m² | - |
| 1777976099 | 22.78° C | 90% | 1006.7 hPa | 0 mm | 0.89 m/s, 34° | 0 W/m² | - |
| 1777976039 | 22.78° C | 89% | 1006.8 hPa | 0 mm | 0.45 m/s, 37° | 0 W/m² | - |
| 1777975978 | 22.78° C | 89% | 1006.8 hPa | 0 mm | 0.89 m/s, 17° | 0 W/m² | - |
| 1777975918 | 22.78° C | 89% | 1006.8 hPa | 0 mm | 1.34 m/s, 31° | 0 W/m² | - |
| 1777975858 | 22.78° C | 90% | 1006.8 hPa | 0 mm | 1.34 m/s, 35° | 0 W/m² | - |
| 1777975799 | 22.78° C | 90% | 1006.9 hPa | 0 mm | 1.34 m/s, 42° | 0 W/m² | - |
| 1777975740 | 22.78° C | 90% | 1006.9 hPa | 0 mm | 0.89 m/s, 44° | 0 W/m² | - |
| 1777975678 | 22.78° C | 90% | 1006.9 hPa | 0 mm | 0.45 m/s, 44° | 0 W/m² | - |
| 1777975619 | 22.78° C | 90% | 1006.9 hPa | 0 mm | 0.89 m/s, 49° | 0 W/m² | - |
| 1777975558 | 22.78° C | 90% | 1006.9 hPa | 0 mm | 1.79 m/s, 41° | 0 W/m² | - |
| 1777975498 | 22.78° C | 90% | 1006.9 hPa | 0 mm | 2.24 m/s, 44° | 0 W/m² | - |
| 1777975439 | 22.78° C | 89% | 1006.9 hPa | 0 mm | 2.24 m/s, 37° | 0 W/m² | - |
| 1777975379 | 22.78° C | 90% | 1006.9 hPa | 0 mm | 1.79 m/s, 39° | 0 W/m² | - |
| 1777975318 | 22.78° C | 90% | 1006.9 hPa | 0 mm | 1.79 m/s, 42° | 0 W/m² | - |
| 1777975258 | 22.22° C | 90% | 1006.9 hPa | 0 mm | 1.79 m/s, 48° | 0 W/m² | - |
| 1777975200 | 22.22° C | 90% | 1006.9 hPa | 0 mm | 1.34 m/s, 44° | 0 W/m² | - |
| 1777975138 | 22.22° C | 90% | 1006.9 hPa | 0 mm | 0.89 m/s, 48° | 0 W/m² | - |
| 1777975080 | 22.22° C | 90% | 1006.8 hPa | 0 mm | 0.89 m/s, 34° | 0 W/m² | - |
| 1777975020 | 22.22° C | 90% | 1006.9 hPa | 0 mm | 1.34 m/s, 39° | 0 W/m² | - |
| 1777974959 | 22.22° C | 90% | 1006.9 hPa | 0 mm | 1.79 m/s, 37° | 0 W/m² | - |
* Rain latest hour (hover to see other rain measurements)
** Current wind speed in m/s (hover to see current wind gust speed)